Terug naar catalogus

CZ-6A DEB

ActiefSSO
NORAD 54295·DEBRIS·🇨🇳 China

Gelanceerd Nov 11, 2022 vanaf Taiyuan Satellite Launch Center

Loading…

Volgende Passages (komende 24 uur)

TLE

VersSource: Space-Track

Epoch: Sep 14, 2026, 00:38 UTC

1 54295U 22151AN  26257.02667849  .00002039  00000-0  71289-3 0  9994
2 54295  98.7342 271.9958 0138712 259.9666  98.5841 14.31071624198750

Volg CZ-6A DEB in realtime met AllMySat

Download on the App Store